Weather reports worldwide

Advertisment
Groningen Eelde, Netherlands (6280): temperature & dewpoint: 22.10.2020 15:00:00 - 28.10.2020 15:00:00 (CET)Groningen Eelde, Netherlands (6280): temperature 5cm: 22.10.2020 15:00:00 - 28.10.2020 15:00:00 (CET)Groningen Eelde, Netherlands (6280): wind speed & gusts: 22.10.2020 15:00:00 - 28.10.2020 15:00:00 (CET)Groningen Eelde, Netherlands (6280): wind direction: 22.10.2020 15:00:00 - 28.10.2020 15:00:00 (CET)Groningen Eelde, Netherlands (6280): reduced air pressure: 22.10.2020 15:00:00 - 28.10.2020 15:00:00 (CET)Groningen Eelde, Netherlands (6280): visibility: 22.10.2020 15:00:00 - 28.10.2020 15:00:00 (CET)Groningen Eelde, Netherlands (6280): precipitation: 22.10.2020 15:00:00 - 28.10.2020 15:00:00 (CET)
Date & Time tt [°C] td [°C] tt 5cm [°C] ff [km/h] ff [kn] fx [km/h] fx [kn] dd ppp [hPa] vv [km] rr [mm]
28.10.2020 15:00:00 12,0 8,0 - 29 16 - - SSW - 10 -
28.10.2020 14:00:00 12,7 7,9 12,6 28 15 47 25 SSW 1004,4 10 0,0
28.10.2020 13:00:00 12,4 8,3 12,2 28 15 50 27 SSW 1004,5 10 0,0
28.10.2020 12:00:00 12,5 8,5 12,6 29 16 47 25 SSW 1004,3 10 0,0
28.10.2020 11:00:00 11,2 8,3 11,5 26 14 40 21 SSW 1004,1 10 0,0
28.10.2020 10:00:00 10,2 7,5 9,8 22 12 32 18 S 1003,9 10 0,0
28.10.2020 09:00:00 9,4 7,1 8,9 18 10 29 16 S 1003,6 10 0,0
28.10.2020 08:00:00 9,8 8,0 9,4 21 11 32 18 SSW 1003,3 10 0,0
28.10.2020 07:00:00 9,9 8,5 9,4 22 12 32 18 SSW 1002,3 10 0,0
28.10.2020 06:00:00 9,5 8,4 8,7 13 7 22 12 SSW 1002,0 10 0,0
28.10.2020 05:00:00 9,1 8,2 8,3 15 8 22 12 SSW 1001,6 10 0,0
28.10.2020 04:00:00 9,4 8,7 8,5 15 8 22 12 SSW 1000,9 10 0,0
28.10.2020 03:00:00 9,8 9,0 9,1 18 10 32 18 SW 1000,6 10 0,0
28.10.2020 02:00:00 11,2 10,4 10,9 24 13 36 19 SW 999,5 10 0,7
28.10.2020 01:00:00 10,7 9,8 10,3 26 14 43 23 SSW 998,5 10 0,3
28.10.2020 00:00:00 10,0 9,2 9,8 24 13 47 25 S 998,1 4,2 0,9
27.10.2020 23:00:00 9,7 8,8 9,5 26 14 40 21 S 998,2 3,9 0,6
27.10.2020 22:00:00 9,5 8,5 9,3 24 13 43 23 S 998,7 6 0,1
27.10.2020 21:00:00 9,8 7,7 9,3 28 15 50 27 S 998,9 10 0,1
27.10.2020 20:00:00 10,7 6,6 10,3 28 15 47 25 S 999,3 10 0,0
27.10.2020 19:00:00 10,6 6,9 10,1 26 14 43 23 S 1000,2 10 0,0
27.10.2020 18:00:00 10,5 7,2 9,7 21 11 36 19 S 1000,6 10 0,0
27.10.2020 17:00:00 10,1 7,3 9,6 22 12 43 23 S 1001,1 10 0,0
27.10.2020 16:00:00 10,7 7,3 10,4 22 12 40 21 S 1001,6 10 0,0
27.10.2020 15:00:00 10,8 7,2 10,5 22 12 40 21 S 1001,7 10 0,0
27.10.2020 14:00:00 11,0 7,6 11,0 28 15 40 21 SSW 1002,2 10 0,0
27.10.2020 13:00:00 10,4 7,7 10,3 22 12 36 19 SSW 1002,6 10 0,0
27.10.2020 12:00:00 10,2 8,0 10,3 22 12 29 16 SSW 1002,9 10 0,0
27.10.2020 11:00:00 10,0 8,0 10,0 21 11 32 18 SSW 1002,8 10 0,0
27.10.2020 10:00:00 9,5 8,1 9,6 26 14 40 21 SSW 1002,6 10 0,0
27.10.2020 09:00:00 8,8 7,5 8,6 21 11 36 19 S 1002,2 10 0,0
27.10.2020 08:00:00 8,6 7,7 8,2 22 12 32 18 SSW 1001,9 9 0,0
27.10.2020 07:00:00 7,8 7,0 7,1 21 11 29 16 S 1001,4 10 0,0
27.10.2020 06:00:00 7,6 6,7 7,0 18 10 29 16 S 1001,0 10 0,0
27.10.2020 05:00:00 7,8 7,0 7,1 15 8 25 14 SSW 1000,5 10 0,0
27.10.2020 04:00:00 7,9 7,1 7,3 16 9 25 14 SSW 1000,2 10 0,0
27.10.2020 03:00:00 7,9 6,9 7,3 13 7 32 18 S 1000,2 10 0,8
27.10.2020 02:00:00 8,7 7,4 8,4 22 12 40 21 SSW 1000,7 10 0,5
27.10.2020 01:00:00 8,7 7,0 7,6 18 10 29 16 SSW 1000,0 10 0,0
27.10.2020 00:00:00 8,8 6,8 8,2 18 10 29 16 SSW 999,9 10 0,0
26.10.2020 23:00:00 9,4 7,1 8,7 21 11 32 18 S 999,8 10 0,3
26.10.2020 22:00:00 9,5 6,8 8,8 21 11 36 19 SSW 999,9 10 0,0
26.10.2020 21:00:00 9,6 6,6 8,8 21 11 32 18 S 999,4 10 0,0
26.10.2020 20:00:00 9,7 6,8 8,9 21 11 32 18 S 999,3 10 0,0
26.10.2020 19:00:00 9,7 6,8 8,7 21 11 32 18 S 999,2 10 0,0
26.10.2020 18:00:00 10,4 6,8 9,9 18 10 32 18 S 999,2 10 0,0
26.10.2020 17:00:00 10,6 6,5 10,1 16 9 32 18 S 999,5 10 0,0
26.10.2020 16:00:00 11,3 6,2 10,1 21 11 36 19 S 999,3 10 0,0
26.10.2020 15:00:00 11,3 6,3 11,0 22 12 36 19 SSW 999,2 10 0,0
26.10.2020 14:00:00 11,9 5,9 11,8 22 12 40 21 SSW 998,9 10 0,0
26.10.2020 13:00:00 11,3 7,5 11,0 18 10 36 19 SSW 999,3 10 0,0
26.10.2020 12:00:00 10,3 7,2 10,3 21 11 32 18 SSW 999,4 10 0,0
26.10.2020 11:00:00 10,0 7,1 10,0 22 12 40 21 SSW 999,6 10 0,0
26.10.2020 10:00:00 9,6 7,7 9,5 18 10 32 18 SSW 999,0 10 0,0
26.10.2020 09:00:00 9,4 7,8 9,2 24 13 36 19 SSW 999,4 10 0,0
26.10.2020 08:00:00 9,2 8,0 8,7 15 8 25 14 S 999,2 10 0,0
26.10.2020 07:00:00 9,7 8,3 9,4 15 8 25 14 S 998,4 10 0,0
26.10.2020 06:00:00 9,6 8,4 9,0 13 7 25 14 S 998,8 10 0,0
26.10.2020 05:00:00 9,0 7,9 8,0 11 6 22 12 S 998,9 10 0,0
26.10.2020 04:00:00 9,7 8,5 8,9 13 7 22 12 S 998,9 10 0,0
26.10.2020 03:00:00 9,9 8,8 9,5 13 7 22 12 S 998,7 10 0,0
26.10.2020 02:00:00 9,9 8,8 9,5 15 8 25 14 SSW 999,2 10 0,0
26.10.2020 01:00:00 9,8 8,7 9,2 15 8 25 14 S 999,8 10 0,0
26.10.2020 00:00:00 9,6 8,5 8,7 13 7 22 12 S 999,8 10 0,0
25.10.2020 23:00:00 9,2 8,1 8,1 11 6 22 12 S 999,7 10 0,0
25.10.2020 22:00:00 9,6 8,3 8,8 15 8 25 14 SSW 999,9 10 0,0
25.10.2020 21:00:00 10,1 8,9 9,3 15 8 25 14 S 1000,0 10 0,0
25.10.2020 20:00:00 10,4 9,1 9,4 13 7 22 12 S 999,8 10 0,0
25.10.2020 19:00:00 11,2 9,3 10,4 16 9 29 16 S 1000,2 10 0,0
25.10.2020 18:00:00 11,4 9,6 10,8 16 9 25 14 S 1000,2 10 0,0
25.10.2020 17:00:00 11,5 10,1 10,9 13 7 25 14 S 1000,0 10 0,0
25.10.2020 16:00:00 11,9 10,1 11,4 13 7 25 14 S 999,6 10 0,0
25.10.2020 15:00:00 12,0 10,3 11,8 16 9 25 14 S 1000,5 10 0,0
25.10.2020 14:00:00 12,1 10,2 12,0 16 9 29 16 SSW 999,8 10 0,0
25.10.2020 13:00:00 12,1 9,7 11,8 18 10 32 18 SSW 1000,7 10 0,0
25.10.2020 12:00:00 12,5 10,1 12,4 22 12 40 21 SSW 1000,6 10 0,0
25.10.2020 11:00:00 12,4 10,3 12,3 22 12 40 21 SSW 1000,2 10 0,0
25.10.2020 10:00:00 11,9 10,0 11,6 26 14 36 19 S 1000,1 10 0,0
25.10.2020 09:00:00 11,1 10,0 10,8 16 9 29 16 S 1000,0 10 0,5
25.10.2020 08:00:00 11,0 9,7 10,7 18 10 40 21 SSW 999,9 10 0,7
25.10.2020 07:00:00 12,4 9,8 11,8 26 14 40 21 WSW 999,7 10 0,1
25.10.2020 06:00:00 15,1 10,8 14,5 26 14 47 25 S 998,8 10 0,0
25.10.2020 05:00:00 15,2 10,9 14,4 31 17 54 29 S 999,0 10 0,0
25.10.2020 04:00:00 15,2 11,1 14,6 31 17 50 27 S 999,4 10 0,0
25.10.2020 03:00:00 14,8 11,6 14,1 29 16 54 29 S 1000,1 10 0,0
25.10.2020 02:00:00 15,2 11,5 14,7 28 15 47 25 S 1000,9 10 0,0
25.10.2020 01:00:00 - - - - - - - - - - -
25.10.2020 00:00:00 14,8 11,6 14,2 28 15 43 23 S 1001,9 10 0,0
24.10.2020 23:00:00 14,6 11,6 13,9 28 15 47 25 S 1002,4 10 0,0
24.10.2020 22:00:00 14,4 11,4 13,7 28 15 50 27 S 1003,3 10 0,0
24.10.2020 21:00:00 14,0 11,3 13,4 29 16 47 25 S 1003,7 10 0,0
24.10.2020 20:00:00 14,0 11,6 13,4 24 13 43 23 S 1004,5 10 0,0
24.10.2020 19:00:00 13,5 11,7 12,8 24 13 36 19 S 1005,6 10 0,0
24.10.2020 18:00:00 12,9 11,6 12,4 18 10 36 19 S 1006,3 10 0,0
24.10.2020 17:00:00 13,8 10,4 13,3 18 10 29 16 S 1006,7 10 0,0
24.10.2020 16:00:00 13,9 10,2 13,4 24 13 36 19 SSW 1007,3 10 0,0
24.10.2020 15:00:00 14,1 10,7 13,8 24 13 36 19 SSW 1007,8 10 0,0
24.10.2020 14:00:00 14,2 11,2 14,3 21 11 32 18 SSW 1008,2 10 0,0
24.10.2020 13:00:00 13,5 11,8 13,5 22 12 32 18 SSW 1008,6 10 0,0
24.10.2020 12:00:00 12,5 11,6 12,5 21 11 32 18 SSW 1008,9 3,9 0,1
24.10.2020 11:00:00 11,9 11,2 11,7 13 7 32 18 S 1009,3 8 0,2
24.10.2020 10:00:00 12,3 10,1 12,2 18 10 29 16 SSW 1009,6 10 0,0
24.10.2020 09:00:00 11,5 10,2 11,3 18 10 29 16 SSW 1009,5 10 0,0
24.10.2020 08:00:00 10,3 9,2 9,5 16 9 29 16 SSW 1009,3 10 0,0
24.10.2020 07:00:00 10,8 9,4 10,0 22 12 40 21 SW 1009,0 10 0,0
24.10.2020 06:00:00 12,0 10,4 11,5 16 9 36 19 SSW 1008,7 10 0,0
24.10.2020 05:00:00 11,9 10,6 11,5 22 12 32 18 SSW 1008,8 10 0,0
24.10.2020 04:00:00 11,9 10,8 11,7 21 11 32 18 SW 1008,8 10 0,1
24.10.2020 03:00:00 12,1 10,8 11,8 22 12 29 16 SW 1008,8 10 0,0
24.10.2020 02:00:00 12,4 11,2 12,0 16 9 29 16 SW 1008,8 10 0,0
24.10.2020 01:00:00 12,4 10,9 12,0 24 13 36 19 SW 1008,6 10 0,2
24.10.2020 00:00:00 12,5 10,8 11,8 22 12 32 18 SW 1008,5 10 0,0
23.10.2020 23:00:00 12,6 10,9 12,2 21 11 29 16 SSW 1008,2 10 0,0
23.10.2020 22:00:00 13,2 11,5 12,7 21 11 32 18 SSW 1008,1 9 0,0
23.10.2020 21:00:00 13,0 11,9 12,1 15 8 25 14 SSW 1007,8 6 0,0
23.10.2020 20:00:00 13,0 11,7 12,3 16 9 25 14 SSW 1008,0 8 0,0
23.10.2020 19:00:00 13,7 11,8 12,8 18 10 25 14 SSW 1008,1 10 0,0
23.10.2020 18:00:00 14,0 12,3 13,3 16 9 25 14 S 1008,0 10 0,0
23.10.2020 17:00:00 14,2 11,8 13,3 13 7 25 14 S 1007,7 10 0,0
23.10.2020 16:00:00 15,3 11,8 14,9 15 8 25 14 SSW 1008,1 10 0,0
23.10.2020 15:00:00 15,7 12,0 16,3 13 7 22 12 S 1007,9 10 0,0
23.10.2020 14:00:00 14,9 11,6 15,8 15 8 22 12 S 1008,6 10 0,0
23.10.2020 13:00:00 12,8 11,7 13,7 13 7 22 12 S 1009,3 5 0,0
23.10.2020 12:00:00 11,4 11,3 11,9 11 6 18 10 S 1010,0 2,1 0,0
23.10.2020 11:00:00 10,3 10,2 10,9 13 7 18 10 S 1010,5 0,2 0,0
23.10.2020 10:00:00 9,8 9,7 10,4 9 5 14 8 S 1010,5 0,3 0,0
23.10.2020 09:00:00 9,4 9,3 9,6 5 3 11 6 S 1010,3 0,4 0,0
23.10.2020 08:00:00 9,0 8,9 9,1 9 5 14 8 SSW 1010,5 0,2 0,0
23.10.2020 07:00:00 8,8 8,6 8,1 9 5 14 8 SSW 1010,1 2,0 0,0
23.10.2020 06:00:00 7,0 6,9 3,7 5 3 11 6 SSW 1009,8 0,5 0,0
23.10.2020 05:00:00 9,4 9,1 8,5 9 5 14 8 SSW 1010,4 5 0,0
23.10.2020 04:00:00 9,4 9,1 7,8 9 5 14 8 SSW 1010,5 4,2 0,0
23.10.2020 03:00:00 10,3 10,1 9,7 13 7 18 10 SSW 1010,6 7 0,0
23.10.2020 02:00:00 8,6 8,5 6,7 9 5 14 8 SW 1010,7 7 0,0
23.10.2020 01:00:00 10,9 10,2 10,0 13 7 18 10 SSW 1010,7 10 0,0
23.10.2020 00:00:00 10,7 10,0 10,4 15 8 18 10 SW 1010,3 10 0,0
22.10.2020 23:00:00 12,1 10,9 11,5 16 9 25 14 SW 1010,3 10 0,0
22.10.2020 22:00:00 11,0 10,0 9,9 15 8 22 12 SW 1010,1 10 0,0
22.10.2020 21:00:00 12,0 10,2 10,8 16 9 29 16 SW 1009,6 10 0,0
22.10.2020 20:00:00 12,4 10,4 11,5 22 12 32 18 SSW 1009,2 10 0,0
22.10.2020 19:00:00 12,3 10,4 11,3 16 9 29 16 SSW 1009,2 10 0,0
22.10.2020 18:00:00 12,4 10,1 11,6 21 11 32 18 SW 1009,1 10 0,0
22.10.2020 17:00:00 14,0 10,5 13,4 24 13 43 23 SW 1008,7 10 0,0
22.10.2020 16:00:00 15,3 10,8 14,9 24 13 40 21 SW 1008,5 10 0,0
22.10.2020 15:00:00 15,5 10,7 15,4 22 12 50 27 SSW 1008,6 10 0,0

tt = temperature
td = dewpoint
tt 5cm = temperature 5cm
ff = wind speed
fx = gusts
dd = wind direction
ppp = reduced air pressure
vv = visibility
rr = precipitation

Next stations